Time,TemperatureF,DewpointF,PressureIn,WindDirection,WindDirectionDegrees,WindSpeedMPH,WindSpeedGustMPH,Humidity,HourlyPrecipIn,Conditions,Clouds,dailyrainin,SoftwareType,DateUTC
2013-04-08 00:03:00,35.0,-99.9,29.99,SSE,150,8.0,10.0,-999,-99.99,,,-99.99,,2013-04-08 05:03:00,
2013-04-08 00:12:00,35.0,-99.9,29.99,SSE,150,8.0,10.0,-999,-99.99,,,-99.99,,2013-04-08 05:12:00,
2013-04-08 00:22:00,35.0,-99.9,29.99,SSE,150,8.0,10.0,-999,-99.99,,,-99.99,,2013-04-08 05:22:00,
2013-04-08 00:32:00,35.0,-99.9,29.99,SSE,150,8.0,10.0,-999,-99.99,,,-99.99,,2013-04-08 05:32:00,
2013-04-08 00:40:00,34.0,-99.9,29.97,SE,140,9.0,11.0,-999,-99.99,,,-99.99,,2013-04-08 05:40:00,
2013-04-08 01:02:00,34.0,-99.9,29.97,SE,140,9.0,11.0,-999,-99.99,,,-99.99,,2013-04-08 06:02:00,
2013-04-08 01:12:00,34.0,-99.9,29.97,SE,140,9.0,11.0,-999,-99.99,,,-99.99,,2013-04-08 06:12:00,
2013-04-08 01:22:00,34.0,-99.9,29.97,SE,140,9.0,11.0,-999,-99.99,,,-99.99,,2013-04-08 06:22:00,
2013-04-08 01:32:00,34.0,-99.9,29.97,SE,140,9.0,11.0,-999,-99.99,,,-99.99,,2013-04-08 06:32:00,
2013-04-08 01:40:00,35.0,-99.9,29.95,SE,130,13.0,14.0,-999,-99.99,,,-99.99,,2013-04-08 06:40:00,
2013-04-08 02:02:00,35.0,-99.9,29.95,SE,130,13.0,14.0,-999,-99.99,,,-99.99,,2013-04-08 07:02:00,
2013-04-08 02:12:00,35.0,-99.9,29.95,SE,130,13.0,14.0,-999,-99.99,,,-99.99,,2013-04-08 07:12:00,
2013-04-08 02:22:00,35.0,-99.9,29.95,SE,130,13.0,14.0,-999,-99.99,,,-99.99,,2013-04-08 07:22:00,
2013-04-08 02:33:00,35.0,-99.9,29.95,SE,130,13.0,14.0,-999,-99.99,,,-99.99,,2013-04-08 07:33:00,
2013-04-08 02:40:00,35.0,-99.9,29.92,ESE,120,14.0,16.0,-999,-99.99,,,-99.99,,2013-04-08 07:40:00,
2013-04-08 03:02:00,35.0,-99.9,29.92,ESE,120,14.0,16.0,-999,-99.99,,,-99.99,,2013-04-08 08:02:00,
2013-04-08 03:12:00,35.0,-99.9,29.92,ESE,120,14.0,16.0,-999,-99.99,,,-99.99,,2013-04-08 08:12:00,
2013-04-08 03:22:00,35.0,-99.9,29.92,ESE,120,14.0,16.0,-999,-99.99,,,-99.99,,2013-04-08 08:22:00,
2013-04-08 03:33:00,35.0,-99.9,29.92,ESE,120,14.0,16.0,-999,-99.99,,,-99.99,,2013-04-08 08:33:00,
2013-04-08 03:40:00,35.0,-99.9,29.93,SE,140,10.0,13.0,-999,-99.99,,,-99.99,,2013-04-08 08:40:00,
2013-04-08 04:03:00,35.0,-99.9,29.93,SE,140,10.0,13.0,-999,-99.99,,,-99.99,,2013-04-08 09:03:00,
2013-04-08 04:12:00,35.0,-99.9,29.93,SE,140,10.0,13.0,-999,-99.99,,,-99.99,,2013-04-08 09:12:00,
2013-04-08 04:23:00,35.0,-99.9,29.93,SE,140,10.0,13.0,-999,-99.99,,,-99.99,,2013-04-08 09:23:00,
2013-04-08 04:34:00,35.0,-99.9,29.93,SE,140,10.0,13.0,-999,-99.99,,,-99.99,,2013-04-08 09:34:00,
2013-04-08 04:40:00,35.0,-99.9,29.92,ESE,120,8.0,13.0,-999,-99.99,,,-99.99,,2013-04-08 09:40:00,
2013-04-08 05:03:00,35.0,-99.9,29.92,ESE,120,8.0,13.0,-999,-99.99,,,-99.99,,2013-04-08 10:03:00,
2013-04-08 05:13:00,35.0,-99.9,29.92,ESE,120,8.0,13.0,-999,-99.99,,,-99.99,,2013-04-08 10:13:00,
2013-04-08 05:23:00,35.0,-99.9,29.92,ESE,120,8.0,13.0,-999,-99.99,,,-99.99,,2013-04-08 10:23:00,
2013-04-08 05:33:00,35.0,-99.9,29.92,ESE,120,8.0,13.0,-999,-99.99,,,-99.99,,2013-04-08 10:33:00,
2013-04-08 06:03:00,35.0,-99.9,29.92,ESE,110,8.0,11.0,-999,-99.99,,,-99.99,,2013-04-08 11:03:00,
2013-04-08 06:12:00,35.0,-99.9,29.92,ESE,110,8.0,11.0,-999,-99.99,,,-99.99,,2013-04-08 11:12:00,
2013-04-08 06:23:00,35.0,-99.9,29.89,East,100,13.0,16.0,-999,-99.99,,,-99.99,,2013-04-08 11:23:00,
2013-04-08 06:33:00,35.0,-99.9,29.89,East,100,13.0,16.0,-999,-99.99,,,-99.99,,2013-04-08 11:33:00,
2013-04-08 06:43:00,35.0,-99.9,29.89,East,100,13.0,16.0,-999,-99.99,,,-99.99,,2013-04-08 11:43:00,
2013-04-08 06:53:00,35.0,-99.9,29.89,East,100,13.0,16.0,-999,-99.99,,,-99.99,,2013-04-08 11:53:00,
2013-04-08 07:04:00,35.0,-99.9,29.90,East,100,14.0,15.0,-999,-99.99,,,-99.99,,2013-04-08 12:04:00,
2013-04-08 07:12:00,35.0,-99.9,29.90,East,100,14.0,15.0,-999,-99.99,,,-99.99,,2013-04-08 12:12:00,
2013-04-08 07:23:00,35.0,-99.9,29.90,East,100,14.0,15.0,-999,-99.99,,,-99.99,,2013-04-08 12:23:00,
2013-04-08 07:33:00,35.0,-99.9,29.90,East,100,14.0,15.0,-999,-99.99,,,-99.99,,2013-04-08 12:33:00,
2013-04-08 07:40:00,35.0,-99.9,29.89,East,100,16.0,20.0,-999,-99.99,,,-99.99,,2013-04-08 12:40:00,
2013-04-08 07:43:00,35.0,-99.9,29.89,East,100,16.0,20.0,-999,-99.99,,,-99.99,,2013-04-08 12:43:00,
2013-04-08 07:53:00,35.0,-99.9,29.89,East,100,16.0,20.0,-999,-99.99,,,-99.99,,2013-04-08 12:53:00,
2013-04-08 08:03:00,35.0,-99.9,29.89,East,100,16.0,20.0,-999,-99.99,,,-99.99,,2013-04-08 13:03:00,
2013-04-08 08:12:00,35.0,-99.9,29.89,East,100,16.0,20.0,-999,-99.99,,,-99.99,,2013-04-08 13:12:00,
2013-04-08 08:22:00,35.0,-99.9,29.89,East,100,16.0,20.0,-999,-99.99,,,-99.99,,2013-04-08 13:22:00,
2013-04-08 08:33:00,35.0,-99.9,29.89,East,100,16.0,20.0,-999,-99.99,,,-99.99,,2013-04-08 13:33:00,
2013-04-08 08:40:00,35.0,-99.9,29.88,East,100,11.0,15.0,-999,-99.99,,,-99.99,,2013-04-08 13:40:00,
2013-04-08 09:03:00,35.0,-99.9,29.88,East,100,11.0,15.0,-999,-99.99,,,-99.99,,2013-04-08 14:03:00,
2013-04-08 09:12:00,35.0,-99.9,29.88,East,100,11.0,15.0,-999,-99.99,,,-99.99,,2013-04-08 14:12:00,
2013-04-08 09:22:00,35.0,-99.9,29.88,East,100,11.0,15.0,-999,-99.99,,,-99.99,,2013-04-08 14:22:00,
2013-04-08 09:33:00,35.0,-99.9,29.88,East,100,11.0,15.0,-999,-99.99,,,-99.99,,2013-04-08 14:33:00,
2013-04-08 09:40:00,35.0,-99.9,29.85,ENE,70,15.0,17.0,-999,-99.99,,,-99.99,,2013-04-08 14:40:00,
2013-04-08 10:02:00,35.0,-99.9,29.85,ENE,70,15.0,17.0,-999,-99.99,,,-99.99,,2013-04-08 15:02:00,
2013-04-08 10:12:00,35.0,-99.9,29.85,ENE,70,15.0,17.0,-999,-99.99,,,-99.99,,2013-04-08 15:12:00,
2013-04-08 10:22:00,35.0,-99.9,29.85,ENE,70,15.0,17.0,-999,-99.99,,,-99.99,,2013-04-08 15:22:00,
2013-04-08 10:35:00,35.0,-99.9,29.85,ENE,70,15.0,17.0,-999,-99.99,,,-99.99,,2013-04-08 15:35:00,
2013-04-08 10:40:00,35.0,-99.9,29.84,ENE,70,11.0,16.0,-999,-99.99,,,-99.99,,2013-04-08 15:40:00,
2013-04-08 11:03:00,35.0,-99.9,29.84,ENE,70,11.0,16.0,-999,-99.99,,,-99.99,,2013-04-08 16:03:00,
2013-04-08 11:13:00,35.0,-99.9,29.84,ENE,70,11.0,16.0,-999,-99.99,,,-99.99,,2013-04-08 16:13:00,
2013-04-08 11:23:00,35.0,-99.9,29.84,ENE,70,11.0,16.0,-999,-99.99,,,-99.99,,2013-04-08 16:23:00,
2013-04-08 11:33:00,35.0,-99.9,29.84,ENE,70,11.0,16.0,-999,-99.99,,,-99.99,,2013-04-08 16:33:00,
2013-04-08 11:40:00,35.0,-99.9,29.84,ENE,60,15.0,16.0,-999,-99.99,,,-99.99,,2013-04-08 16:40:00,
2013-04-08 12:03:00,35.0,-99.9,29.84,ENE,60,15.0,16.0,-999,-99.99,,,-99.99,,2013-04-08 17:03:00,
2013-04-08 12:12:00,35.0,-99.9,29.84,ENE,60,15.0,16.0,-999,-99.99,,,-99.99,,2013-04-08 17:12:00,
2013-04-08 12:23:00,35.0,-99.9,29.84,ENE,60,15.0,16.0,-999,-99.99,,,-99.99,,2013-04-08 17:23:00,
2013-04-08 12:33:00,35.0,-99.9,29.84,ENE,60,15.0,16.0,-999,-99.99,,,-99.99,,2013-04-08 17:33:00,
2013-04-08 12:40:00,35.0,-99.9,29.83,ENE,60,17.0,21.0,-999,-99.99,,,-99.99,,2013-04-08 17:40:00,
2013-04-08 13:02:00,35.0,-99.9,29.83,ENE,60,17.0,21.0,-999,-99.99,,,-99.99,,2013-04-08 18:02:00,
2013-04-08 13:12:00,35.0,-99.9,29.83,ENE,60,17.0,21.0,-999,-99.99,,,-99.99,,2013-04-08 18:12:00,
2013-04-08 13:23:00,35.0,-99.9,29.83,ENE,60,17.0,21.0,-999,-99.99,,,-99.99,,2013-04-08 18:23:00,
2013-04-08 13:32:00,35.0,-99.9,29.83,ENE,60,17.0,21.0,-999,-99.99,,,-99.99,,2013-04-08 18:32:00,
2013-04-08 13:40:00,35.0,-99.9,29.81,NE,50,17.0,22.0,-999,-99.99,,,-99.99,,2013-04-08 18:40:00,
2013-04-08 14:03:00,35.0,-99.9,29.81,NE,50,17.0,22.0,-999,-99.99,,,-99.99,,2013-04-08 19:03:00,
2013-04-08 14:13:00,35.0,-99.9,29.81,NE,50,17.0,22.0,-999,-99.99,,,-99.99,,2013-04-08 19:13:00,
2013-04-08 14:23:00,35.0,-99.9,29.81,NE,50,17.0,22.0,-999,-99.99,,,-99.99,,2013-04-08 19:23:00,
2013-04-08 14:34:00,35.0,-99.9,29.81,NE,50,17.0,22.0,-999,-99.99,,,-99.99,,2013-04-08 19:34:00,
2013-04-08 14:40:00,36.0,-99.9,29.82,NE,50,14.0,18.0,-999,-99.99,,,-99.99,,2013-04-08 19:40:00,
2013-04-08 15:02:00,36.0,-99.9,29.82,NE,50,14.0,18.0,-999,-99.99,,,-99.99,,2013-04-08 20:02:00,
2013-04-08 15:12:00,36.0,-99.9,29.82,NE,50,14.0,18.0,-999,-99.99,,,-99.99,,2013-04-08 20:12:00,
2013-04-08 15:23:00,36.0,-99.9,29.82,NE,50,14.0,18.0,-999,-99.99,,,-99.99,,2013-04-08 20:23:00,
2013-04-08 15:33:00,36.0,-99.9,29.82,NE,50,14.0,18.0,-999,-99.99,,,-99.99,,2013-04-08 20:33:00,
2013-04-08 15:40:00,36.0,-99.9,29.83,NE,40,11.0,17.0,-999,-99.99,,,-99.99,,2013-04-08 20:40:00,
2013-04-08 16:02:00,36.0,-99.9,29.83,NE,40,11.0,17.0,-999,-99.99,,,-99.99,,2013-04-08 21:02:00,
2013-04-08 16:12:00,36.0,-99.9,29.83,NE,40,11.0,17.0,-999,-99.99,,,-99.99,,2013-04-08 21:12:00,
2013-04-08 16:22:00,36.0,-99.9,29.83,NE,40,11.0,17.0,-999,-99.99,,,-99.99,,2013-04-08 21:22:00,
2013-04-08 16:33:00,36.0,-99.9,29.83,NE,40,11.0,17.0,-999,-99.99,,,-99.99,,2013-04-08 21:33:00,
2013-04-08 16:40:00,36.0,-99.9,29.84,ENE,60,14.0,16.0,-999,-99.99,,,-99.99,,2013-04-08 21:40:00,
2013-04-08 17:03:00,36.0,-99.9,29.84,ENE,60,14.0,16.0,-999,-99.99,,,-99.99,,2013-04-08 22:03:00,
2013-04-08 17:14:00,36.0,-99.9,29.84,ENE,60,14.0,16.0,-999,-99.99,,,-99.99,,2013-04-08 22:14:00,
2013-04-08 17:23:00,36.0,-99.9,29.84,ENE,60,14.0,16.0,-999,-99.99,,,-99.99,,2013-04-08 22:23:00,
2013-04-08 17:32:00,36.0,-99.9,29.84,ENE,60,14.0,16.0,-999,-99.99,,,-99.99,,2013-04-08 22:32:00,
2013-04-08 18:03:00,36.0,-99.9,29.86,NE,50,13.0,18.0,-999,-99.99,,,-99.99,,2013-04-08 23:03:00,
2013-04-08 18:13:00,36.0,-99.9,29.86,NE,50,13.0,18.0,-999,-99.99,,,-99.99,,2013-04-08 23:13:00,
2013-04-08 18:22:00,36.0,-99.9,29.86,NE,50,13.0,18.0,-999,-99.99,,,-99.99,,2013-04-08 23:22:00,
2013-04-08 18:32:00,36.0,-99.9,29.88,NNE,20,6.0,22.0,-999,-99.99,,,-99.99,,2013-04-08 23:32:00,
2013-04-08 18:40:00,35.0,-99.9,29.90,North,10,6.0,8.0,-999,-99.99,,,-99.99,,2013-04-08 23:40:00,
2013-04-08 18:43:00,36.0,-99.9,29.88,NNE,20,6.0,22.0,-999,-99.99,,,-99.99,,2013-04-08 23:43:00,
2013-04-08 18:52:00,36.0,-99.9,29.88,NNE,20,6.0,22.0,-999,-99.99,,,-99.99,,2013-04-08 23:52:00,
2013-04-08 19:02:00,35.0,-99.9,29.90,North,10,6.0,8.0,-999,-99.99,,,-99.99,,2013-04-09 00:02:00,
2013-04-08 19:13:00,35.0,-99.9,29.90,North,10,6.0,8.0,-999,-99.99,,,-99.99,,2013-04-09 00:13:00,
2013-04-08 19:22:00,35.0,-99.9,29.90,North,10,6.0,8.0,-999,-99.99,,,-99.99,,2013-04-09 00:22:00,
2013-04-08 19:32:00,35.0,-99.9,29.90,North,10,6.0,8.0,-999,-99.99,,,-99.99,,2013-04-09 00:32:00,
2013-04-08 20:03:00,35.0,-99.9,29.93,North,360,8.0,9.0,-999,-99.99,,,-99.99,,2013-04-09 01:03:00,
2013-04-08 20:12:00,35.0,-99.9,29.93,North,360,8.0,9.0,-999,-99.99,,,-99.99,,2013-04-09 01:12:00,
2013-04-08 20:22:00,35.0,-99.9,29.93,North,360,8.0,9.0,-999,-99.99,,,-99.99,,2013-04-09 01:22:00,
2013-04-08 20:34:00,35.0,-99.9,29.93,North,360,8.0,9.0,-999,-99.99,,,-99.99,,2013-04-09 01:34:00,
2013-04-08 20:40:00,34.0,-99.9,29.97,NW,320,6.0,7.0,-999,-99.99,,,-99.99,,2013-04-09 01:40:00,
2013-04-08 20:42:00,34.0,-99.9,29.96,NNW,330,7.0,10.0,-999,-99.99,,,-99.99,,2013-04-09 01:42:00,
2013-04-08 20:53:00,34.0,-99.9,29.96,NNW,330,7.0,10.0,-999,-99.99,,,-99.99,,2013-04-09 01:53:00,
2013-04-08 21:02:00,34.0,-99.9,29.97,NW,320,6.0,7.0,-999,-99.99,,,-99.99,,2013-04-09 02:02:00,
2013-04-08 21:13:00,34.0,-99.9,29.97,NW,320,6.0,7.0,-999,-99.99,,,-99.99,,2013-04-09 02:13:00,
2013-04-08 21:22:00,34.0,-99.9,29.97,NW,320,6.0,7.0,-999,-99.99,,,-99.99,,2013-04-09 02:22:00,
2013-04-08 21:33:00,34.0,-99.9,29.97,NW,320,6.0,7.0,-999,-99.99,,,-99.99,,2013-04-09 02:33:00,
2013-04-08 21:40:00,34.0,-99.9,29.99,NNW,340,7.0,8.0,-999,-99.99,,,-99.99,,2013-04-09 02:40:00,
2013-04-08 22:02:00,34.0,-99.9,29.99,NNW,340,7.0,8.0,-999,-99.99,,,-99.99,,2013-04-09 03:02:00,
2013-04-08 22:12:00,34.0,-99.9,29.99,NNW,340,7.0,8.0,-999,-99.99,,,-99.99,,2013-04-09 03:12:00,
2013-04-08 22:22:00,34.0,-99.9,29.99,NNW,340,7.0,8.0,-999,-99.99,,,-99.99,,2013-04-09 03:22:00,
2013-04-08 22:33:00,34.0,-99.9,29.99,NNW,340,7.0,8.0,-999,-99.99,,,-99.99,,2013-04-09 03:33:00,
2013-04-08 22:40:00,34.0,-99.9,30.02,NNW,340,8.0,9.0,-999,-99.99,,,-99.99,,2013-04-09 03:40:00,
2013-04-08 23:03:00,34.0,-99.9,30.02,NNW,340,8.0,9.0,-999,-99.99,,,-99.99,,2013-04-09 04:03:00,
2013-04-08 23:13:00,34.0,-99.9,30.02,NNW,340,8.0,9.0,-999,-99.99,,,-99.99,,2013-04-09 04:13:00,
2013-04-08 23:23:00,34.0,-99.9,30.02,NNW,340,8.0,9.0,-999,-99.99,,,-99.99,,2013-04-09 04:23:00,
2013-04-08 23:33:00,34.0,-99.9,30.02,NNW,340,8.0,9.0,-999,-99.99,,,-99.99,,2013-04-09 04:33:00,
2013-04-08 23:40:00,34.0,-99.9,30.03,North,360,8.0,10.0,-999,-99.99,,,-99.99,,2013-04-09 04:40:00,